User: anonymous   Login
Location: Pine Mountain Observatory
(43.7910°N, 120.9377°W)
Time: 01:42:56
(UTC-07:00)
Language:

APEX - Orbit

View from above orbital plane
View from above orbital plane
View from above satellite
View from above satellite

Ground track
Ground track

The orbit data is extracted from the following two-line orbital elements,

1 23191U 94046A   16240.83377094  .00006048  00000-0  20508-3 0  9999
2 23191  69.9263 176.6763 0627467 292.3511  61.2280 14.32928602 74450
Epoch (UTC): 27 August 2016 20:00:37
Eccentricity: 0.0627467
inclination: 69.9263°
perigee height: 332 km
apogee height: 1231 km
right ascension of ascending node: 176.6763°
argument of perigee: 292.3511°
revolutions per day: 14.32928602
mean anomaly at epoch: 61.2280°
orbit number at epoch: 7445

The dashed part of the orbit path shows where the satellite is in the earth's shadow,  

DLR